Weather History for KJEF - September, 2013

Change the Weather History Date:

Wednesday, September 25, 2013

  Actual Average Record
Temperature  
Mean Temperature 67 °F -  
Max Temperature 78 °F 75 °F 93 °F (1939)
Min Temperature 57 °F 48 °F 31 °F (1989)
Cooling Degree Days 2    
Growing Degree Days 17 (Base 50)    
Moisture  
Dew Point 60 °F    
Average Humidity 85    
Maximum Humidity 100    
Minimum Humidity 58    
Precipitation  
Precipitation 0.00 in - - ()
Sea Level Pressure  
Sea Level Pressure 29.84 in    
Wind  
Wind Speed 1 mph (NNW)    
Max Wind Speed 7 mph    
Max Gust Speed -    
Visibility 6 miles    
Events Fog    
Averages and records for this station are not official NWS values.
T = Trace of Precipitation, MM = Missing Value Source: NWS Daily Summary

Daily Weather History Graph

Daily Weather History Graph

Search for Another Location

Airport or City:

Trip Planner

Search our weather history database for the weather conditions in past years. The results will help you decide how hot, cold, wet, or windy it might be!

Date:

Astronomy

Sep. 25, 2013 Rise Set
Actual Time 6:59 AM CDT 7:00 PM CDT
Civil Twilight 6:32 AM CDT 7:26 PM CDT
Nautical Twilight 6:01 AM CDT 7:57 PM CDT
Astronomical Twilight 5:30 AM CDT 8:28 PM CDT
Moon 11:10 PM CDT (9/25) 1:01 PM CDT (9/25)
Length of Visible Light 12h 54m
Length of Day
12h 01m
Waning Gibbous, 64% of the Moon is Illuminated
Sep 25
Waning Gibbous
Sep 26
Last Quarter
Oct 4
New
Oct 11
First Quarter
Oct 18
Full

Hourly Weather History & Observations

Time (CDT) Temp. Dew Point Humidity Pressure Visibility Wind Dir Wind Speed Gust Speed Precip Events Conditions
12:53 AM 60.1 °F 57.0 °F 90% 29.77 in 10.0 mi Calm Calm - N/A   Scattered Clouds
1:53 AM 60.1 °F 55.9 °F 86% 29.77 in 10.0 mi Calm Calm - N/A   Mostly Cloudy
2:53 AM 59.0 °F 57.0 °F 93% 29.78 in 10.0 mi Calm Calm - N/A   Clear
3:53 AM 57.9 °F 55.9 °F 93% 29.78 in 9.0 mi Calm Calm - N/A   Clear
4:24 AM 57.2 °F 55.4 °F 94% 29.83 in 9.0 mi NW 3.5 mph - N/A   Scattered Clouds
4:34 AM 57.2 °F 55.4 °F 94% 29.84 in 9.0 mi WNW 3.5 mph - N/A   Mostly Cloudy
4:53 AM 57.9 °F 55.9 °F 93% 29.79 in 7.0 mi Calm Calm - N/A   Overcast
5:26 AM 59.0 °F 57.2 °F 94% 29.83 in 7.0 mi NW 3.5 mph - N/A   Overcast
5:43 AM 59.0 °F 57.2 °F 94% 29.84 in 1.2 mi Calm Calm - N/A   Overcast
5:47 AM 59.0 °F 57.2 °F 94% 29.84 in 0.2 mi Calm Calm - N/A Fog Fog
5:53 AM 59.0 °F 57.9 °F 96% 29.81 in 0.2 mi Calm Calm - N/A Fog Fog
6:04 AM 59.0 °F 57.2 °F 94% 29.84 in 0.2 mi Calm Calm - N/A Fog Fog
6:53 AM 59.0 °F 57.0 °F 93% 29.82 in 0.5 mi Calm Calm - N/A Fog Fog
7:22 AM 59.0 °F 57.2 °F 94% 29.86 in 0.2 mi Calm Calm - N/A Fog Fog
7:51 AM 59.0 °F 57.2 °F 94% 29.86 in 0.2 mi Calm Calm - N/A Fog Fog
7:53 AM 59.0 °F 57.9 °F 96% 29.83 in 0.2 mi Calm Calm - N/A Fog Fog
8:33 AM 60.8 °F 59.0 °F 94% 29.87 in 0.2 mi Calm Calm - N/A Fog Fog
8:53 AM 60.1 °F 59.0 °F 96% 29.84 in 0.2 mi West 3.5 mph - N/A Fog Fog
9:46 AM 60.8 °F 60.8 °F 100% 29.88 in 0.5 mi West 3.5 mph - N/A Fog Fog
9:53 AM 61.0 °F 60.1 °F 97% 29.85 in 0.8 mi Calm Calm - N/A   Overcast
10:02 AM 62.6 °F 60.8 °F 94% 29.88 in 1.8 mi Calm Calm - N/A   Overcast
10:07 AM 62.6 °F 60.8 °F 94% 29.88 in 3.0 mi West 3.5 mph - N/A   Overcast
10:53 AM 64.0 °F 61.0 °F 90% 29.86 in 6.0 mi Calm Calm - N/A   Overcast
11:11 AM 66.2 °F 62.6 °F 88% 29.89 in 8.0 mi Calm Calm - N/A   Mostly Cloudy
11:18 AM 69.8 °F 62.6 °F 78% 29.89 in 9.0 mi Calm Calm - N/A   Mostly Cloudy
11:53 AM 70.0 °F 63.0 °F 78% 29.86 in 10.0 mi Calm Calm - N/A   Mostly Cloudy
12:00 PM 71.6 °F 62.6 °F 73% 29.89 in 10.0 mi Calm Calm - N/A   Mostly Cloudy
12:53 PM 73.0 °F 62.1 °F 68% 29.84 in 10.0 mi NE 4.6 mph - N/A   Overcast
1:53 PM 73.9 °F 62.1 °F 66% 29.83 in 10.0 mi Calm Calm - N/A   Mostly Cloudy
2:49 PM 73.4 °F 62.6 °F 69% 29.86 in 10.0 mi Calm Calm - N/A   Mostly Cloudy
2:53 PM 75.0 °F 62.1 °F 64% 29.83 in 10.0 mi Variable 3.5 mph - N/A   Mostly Cloudy
3:14 PM 73.4 °F 62.6 °F 69% 29.86 in 10.0 mi ESE 6.9 mph - N/A   Mostly Cloudy
3:23 PM 75.2 °F 62.6 °F 65% 29.86 in 10.0 mi ENE 6.9 mph - N/A   Mostly Cloudy
3:53 PM 75.9 °F 62.1 °F 62% 29.82 in 9.0 mi NNE 4.6 mph - N/A   Partly Cloudy
4:53 PM 75.9 °F 62.1 °F 62% 29.81 in 10.0 mi Calm Calm - N/A   Partly Cloudy
5:53 PM 77.0 °F 61.0 °F 58% 29.81 in 10.0 mi ENE 4.6 mph - N/A   Clear
6:53 PM 73.0 °F 62.1 °F 68% 29.82 in 10.0 mi Calm Calm - N/A   Clear
7:53 PM 68.0 °F 62.1 °F 81% 29.82 in 9.0 mi Calm Calm - N/A   Clear
8:53 PM 66.9 °F 62.1 °F 84% 29.83 in 7.0 mi Calm Calm - N/A   Clear
9:53 PM 64.9 °F 62.1 °F 90% 29.84 in 6.0 mi Calm Calm - N/A   Clear
10:53 PM 63.0 °F 61.0 °F 93% 29.85 in 3.0 mi Calm Calm - N/A   Clear
11:20 PM 62.6 °F 60.8 °F 94% 29.88 in 1.5 mi Calm Calm - N/A   Clear
11:31 PM 62.6 °F 60.8 °F 94% 29.88 in 3.0 mi Calm Calm - N/A   Clear
11:43 PM 62.6 °F 59.0 °F 88% 29.88 in 1.8 mi Calm Calm - N/A   Clear
11:53 PM 62.1 °F 60.1 °F 93% 29.84 in 2.0 mi Calm Calm - N/A   Partly Cloudy